TimeEDT,TemperatureF,Dew PointF,Humidity,Sea Level PressureIn,VisibilityMPH,Wind Direction,Wind SpeedMPH,Gust SpeedMPH,PrecipitationIn,Events,Conditions,WindDirDegrees,DateUTC
12:04 AM,77.0,73.4,89,29.93,10.0,NE,4.6,-,N/A,Thunderstorm,Thunderstorm,40,2013-05-02 04:04:00
12:53 AM,75.9,73.0,91,29.92,4.0,ESE,9.2,-,0.06,Rain-Thunderstorm,Heavy Thunderstorms and Rain,120,2013-05-02 04:53:00
1:02 AM,73.4,71.6,94,29.93,2.5,SE,3.5,-,0.09,Rain-Thunderstorm,Heavy Thunderstorms and Rain,140,2013-05-02 05:02:00
1:12 AM,73.4,69.8,88,29.93,5.0,East,4.6,-,0.11,Rain-Thunderstorm,Light Thunderstorms and Rain,90,2013-05-02 05:12:00
1:34 AM,73.4,69.8,88,29.92,10.0,East,4.6,-,0.11,,Mostly Cloudy,90,2013-05-02 05:34:00
1:53 AM,73.9,70.0,87,29.92,10.0,East,5.8,-,0.11,,Partly Cloudy,80,2013-05-02 05:53:00
2:48 AM,75.2,71.6,89,29.90,10.0,SE,5.8,-,N/A,,Scattered Clouds,140,2013-05-02 06:48:00
2:53 AM,75.0,71.1,87,29.90,10.0,SE,5.8,-,N/A,,Partly Cloudy,130,2013-05-02 06:53:00
3:01 AM,75.2,71.6,89,29.90,10.0,SE,4.6,-,N/A,Thunderstorm,Thunderstorm,130,2013-05-02 07:01:00
3:23 AM,75.2,69.8,83,29.89,10.0,East,6.9,-,N/A,,Partly Cloudy,90,2013-05-02 07:23:00
3:49 AM,75.2,71.6,89,29.90,10.0,East,5.8,-,N/A,Thunderstorm,Thunderstorm,80,2013-05-02 07:49:00
3:53 AM,75.0,72.0,90,29.90,10.0,East,5.8,-,N/A,Thunderstorm,Thunderstorm,80,2013-05-02 07:53:00
3:59 AM,75.2,71.6,89,29.90,10.0,East,6.9,-,N/A,Thunderstorm,Thunderstorm,80,2013-05-02 07:59:00
4:20 AM,75.2,73.4,94,29.89,10.0,East,9.2,-,N/A,,Mostly Cloudy,90,2013-05-02 08:20:00
4:41 AM,75.2,73.4,94,29.89,10.0,East,11.5,-,N/A,,Overcast,100,2013-05-02 08:41:00
4:53 AM,75.9,73.0,91,29.89,10.0,East,11.5,-,N/A,,Mostly Cloudy,90,2013-05-02 08:53:00
5:21 AM,75.2,71.6,89,29.89,10.0,ESE,11.5,-,N/A,,Mostly Cloudy,110,2013-05-02 09:21:00
5:53 AM,75.9,71.1,85,29.88,10.0,ESE,13.8,-,N/A,,Mostly Cloudy,110,2013-05-02 09:53:00
6:06 AM,75.2,71.6,89,29.88,10.0,ESE,12.7,-,N/A,Thunderstorm,Thunderstorm,110,2013-05-02 10:06:00
6:29 AM,75.2,69.8,83,29.89,10.0,ESE,13.8,-,N/A,,Mostly Cloudy,120,2013-05-02 10:29:00
6:53 AM,75.9,69.1,79,29.88,10.0,ESE,16.1,-,N/A,,Mostly Cloudy,110,2013-05-02 10:53:00
7:45 AM,77.0,71.6,83,29.87,10.0,ESE,11.5,-,N/A,,Mostly Cloudy,120,2013-05-02 11:45:00
7:53 AM,78.1,71.1,79,29.87,10.0,ESE,15.0,-,N/A,,Mostly Cloudy,110,2013-05-02 11:53:00
8:53 AM,79.0,72.0,79,29.88,10.0,ESE,12.7,-,N/A,,Mostly Cloudy,120,2013-05-02 12:53:00
9:53 AM,80.1,73.0,79,29.89,10.0,ESE,15.0,-,N/A,,Mostly Cloudy,120,2013-05-02 13:53:00
10:25 AM,80.6,73.4,79,29.89,10.0,ESE,16.1,-,N/A,,Mostly Cloudy,120,2013-05-02 14:25:00
10:47 AM,78.8,73.4,83,29.89,10.0,ESE,15.0,-,0.00,Rain-Thunderstorm,Light Thunderstorms and Rain,120,2013-05-02 14:47:00
10:53 AM,78.1,72.0,81,29.88,4.0,ESE,18.4,-,0.05,Rain-Thunderstorm,Light Thunderstorms and Rain,120,2013-05-02 14:53:00
10:55 AM,77.0,71.6,83,29.88,1.8,ESE,19.6,-,0.08,Rain-Thunderstorm,Light Thunderstorms and Rain,120,2013-05-02 14:55:00
11:02 AM,75.2,73.4,94,29.89,0.5,ESE,13.8,24.2,0.25,Fog-Rain-Thunderstorm,Thunderstorms and Rain,110,2013-05-02 15:02:00
11:10 AM,75.2,73.4,94,29.89,2.0,ESE,11.5,-,0.38,Rain-Thunderstorm,Light Thunderstorms and Rain,120,2013-05-02 15:10:00
11:16 AM,75.2,73.4,94,29.89,5.0,East,9.2,-,0.42,Rain-Thunderstorm,Light Thunderstorms and Rain,100,2013-05-02 15:16:00
11:40 AM,77.0,73.4,89,29.89,1.0,SE,13.8,-,0.52,Rain-Thunderstorm,Light Thunderstorms and Rain,140,2013-05-02 15:40:00
11:53 AM,73.9,69.1,85,29.88,5.0,NE,5.8,-,0.85,Rain-Thunderstorm,Light Thunderstorms and Rain,40,2013-05-02 15:53:00
12:18 PM,78.8,73.4,83,29.89,5.0,East,10.4,-,0.00,Rain-Thunderstorm,Light Thunderstorms and Rain,90,2013-05-02 16:18:00
12:35 PM,73.4,69.8,88,29.90,1.0,NW,16.1,26.5,0.24,Rain-Thunderstorm,Light Thunderstorms and Rain,320,2013-05-02 16:35:00
12:40 PM,73.4,69.8,88,29.88,0.5,NE,16.1,42.6,0.55,Rain-Thunderstorm,Heavy Thunderstorms and Rain,40,2013-05-02 16:40:00
12:53 PM,73.0,69.1,87,29.87,1.0,NNE,17.3,25.3,0.79,Rain-Thunderstorm,Heavy Thunderstorms and Rain,20,2013-05-02 16:53:00
12:59 PM,71.6,66.2,83,29.87,4.0,NNE,16.1,25.3,0.03,Rain-Thunderstorm,Light Thunderstorms and Rain,30,2013-05-02 16:59:00
1:53 PM,71.1,69.1,93,29.88,2.0,North,16.1,-,0.57,Rain-Thunderstorm,Light Thunderstorms and Rain,10,2013-05-02 17:53:00
2:10 PM,69.8,68.0,94,29.90,0.1,West,20.7,34.5,0.84,Rain-Thunderstorm,Heavy Thunderstorms and Rain,260,2013-05-02 18:10:00
2:32 PM,69.8,68.0,94,29.91,0.5,WNW,10.4,-,1.95,Rain-Thunderstorm,Heavy Thunderstorms and Rain,290,2013-05-02 18:32:00
2:53 PM,69.1,68.0,96,29.91,0.5,NNW,20.7,28.8,2.52,Rain-Thunderstorm,Heavy Thunderstorms and Rain,330,2013-05-02 18:53:00
2:59 PM,69.8,68.0,94,29.90,1.0,NNW,20.7,28.8,0.05,Rain,Rain,330,2013-05-02 18:59:00
3:09 PM,69.8,68.0,94,29.91,1.0,NNW,16.1,26.5,0.10,Rain-Thunderstorm,Light Thunderstorms and Rain,330,2013-05-02 19:09:00
3:20 PM,69.8,68.0,94,29.89,1.0,North,16.1,-,0.20,Rain-Thunderstorm,Light Thunderstorms and Rain,360,2013-05-02 19:20:00
3:26 PM,69.8,68.0,94,29.89,4.0,North,13.8,-,0.20,Rain-Thunderstorm,Light Thunderstorms and Rain,360,2013-05-02 19:26:00
3:36 PM,69.8,66.2,88,29.89,7.0,North,10.4,-,0.22,Rain,Light Rain,360,2013-05-02 19:36:00
3:53 PM,70.0,66.9,90,29.88,4.0,NNW,10.4,-,0.26,Rain,Light Rain,340,2013-05-02 19:53:00
4:53 PM,71.1,68.0,90,29.82,10.0,NNW,5.8,-,0.05,,Mostly Cloudy,340,2013-05-02 20:53:00
5:53 PM,75.0,69.8,84,29.83,10.0,ENE,5.8,-,N/A,,Mostly Cloudy,70,2013-05-02 21:53:00
6:53 PM,73.9,69.1,85,29.82,10.0,ENE,5.8,-,N/A,,Scattered Clouds,70,2013-05-02 22:53:00
7:53 PM,75.2,68.0,78,29.83,10.0,East,3.5,-,N/A,,Scattered Clouds,80,2013-05-02 23:53:00
8:53 PM,72.0,69.1,91,29.83,10.0,ENE,5.8,-,N/A,,Scattered Clouds,70,2013-05-03 00:53:00
9:53 PM,73.0,69.1,87,29.84,10.0,ENE,6.9,-,N/A,,Clear,70,2013-05-03 01:53:00
10:53 PM,72.0,69.1,91,29.86,10.0,ENE,4.6,-,N/A,,Clear,70,2013-05-03 02:53:00
11:53 PM,71.1,68.0,90,29.84,10.0,NE,3.5,-,N/A,,Clear,50,2013-05-03 03:53:00